Regional Weather Roundup
Issued by NWS Midland/Odessa, TX

Skip options and go directly to product.
Home | Oldest Version | Next Version | Current Version | All | Text Only | Save Text | Print | Product List | Glossary On

Skip product version selection by date and time.   
433
ASUS44 KMAF 051601
RWRMAF
MIDLAND AREA WEATHER ROUNDUP
NATIONAL WEATHER SERVICE MIDLAND TX
1100 AM CDT THU MAY 05 2016

...IN SOUTHWEST TEXAS AND SOUTHEAST NEW MEXICO...

CITY           SKY/WX    TMP DP  RH WIND       PRES   REMARKS
ALPINE         MOSUNNY   75  24  15 E8        30.27S
ANDREWS        FAIR      75  33  21 SW9       30.18S
ARTESIA        SUNNY     72  28  20 VRB3      30.17S
BIG SPRING     SUNNY     75  39  27 S9        30.17F
CARLSBAD       SUNNY     73  30  20 VRB3      30.15S
DRYDEN           N/A     79  39  23 SE9G18    30.14S
FORT STOCKTON  MOSUNNY   80  32  17 SE14      30.15S
GUAD PASS      NOT AVBL
HOBBS          SUNNY     77  30  18 S9        30.19S
MARFA          CLOUDY    73  24  16 SE14      30.25S
MIDLAND AIRPK  SUNNY     78  33  19 S6        30.17S
MIDLAND INTL   SUNNY     79  33  19 S9        30.16F
ODESSA         SUNNY     76  33  21 S9        30.18S
PECOS          MOSUNNY   71  29  21 NE3       30.14S
PRESIDIO       FAIR      78  35  21 NE8       30.14R
SEMINOLE       SUNNY     77  32  19 SW9       30.19S
SNYDER           N/A     73  43  33 W6        30.16S
WINK           SUNNY     77  33  20 VRB5      30.14S
$$
...OTHER STATIONS IN TEXAS...

CITY           SKY/WX    TMP DP  RH WIND       PRES   REMARKS
ABILENE        SUNNY     76  51  41 CALM      30.13F
AMARILLO       SUNNY     74  41  30 S12       30.16F
AUSTIN         MOSUNNY   79  54  41 NE9       30.08S
BROWNSVILLE    SUNNY     82  55  39 SW9       30.07S
CORPUS CHRISTI MOSUNNY   79  55  43 VRB7      30.08R
DALLAS FTW     MOSUNNY   75  43  31 CALM      30.11R
DEL RIO        CLOUDY    78  50  37 E6        30.11S
EL PASO        PTSUNNY   76  23  14 SE14      30.14S
HOUSTON INT    MOSUNNY   78  49  35 NE8       30.05R
LUBBOCK        MOSUNNY   79  31  17 SW13      30.15F
SAN ANGELO     SUNNY     79  47  32 VRB3      30.13S
SAN ANTONIO    MOSUNNY   79  50  36 VRB3      30.10S
WACO           SUNNY     76  52  43 NE3       30.10S
WICHITA FALLS  NOT AVBL
$$
...OTHER LOCATIONS IN NEW MEXICO...

CITY           SKY/WX    TMP DP  RH WIND       PRES   REMARKS
ALAMAGORDO     SUNNY     73  21  14 W3        30.18S
ALBUQUERQUE    MOSUNNY   70  26  19 VRB3      30.22S
CANNON AFB     NOT AVBL
CLOVIS         SUNNY     75  34  22 SW12      30.19S
HOLLOMAN AFB   NOT AVBL
ROSWELL        SUNNY     71  30  21 CALM      30.16F
RUIDOSO          N/A     64  23  20 NE6       30.32S
SANTA FE       SUNNY     69  22  16 N5        30.26S
TRUTH OR CONSE SUNNY     72  20  14 VRB5      30.18S
TUCUMCARI      SUNNY     77  31  18 MISG      30.15S
$$

USA.gov is the U.S. government's official web portal to all federal, state and local government web resources and services.